Regional Weather Roundup
Issued by NWS

Home | Current Version | Previous Version | Text Only | Print | Product List | Glossary On
Versions: 1 2 3 4 5 6 7 8 9 10 11 12 13 14 15 16 17 18 19 20 21 22 23 24 25 26 27 28 29 30 31 32 33 34 35 36 37 38 39 40 41 42 43 44 45 46 47 48 49 50
330
ASUS44 KLIX 221305
RWRLA
LOUISIANA WEATHER ROUNDUP
NATIONAL WEATHER SERVICE NEW ORLEANS LA
800 AM CDT TUE JUL 22 2014

NOTE: "FAIR" INDICATES FEW OR NO CLOUDS BELOW 12,000 FEET WITH NO
      SIGNIFICANT WEATHER AND/OR OBSTRUCTIONS TO VISIBILITY.
      SKY/WX - SKY CONDITION AND SIGNIFICANT WEATHER.
      TMP - AIR TEMPERATURE.    DP   - DEWPOINT TEMPERATURE.
      RH  - RELATIVE HUMIDITY.  PRES - PRESSURE.
      HX  - HEAT INDEX.         WCI  - WIND CHILL INDEX.

*  THESE STATIONS ARE NOT NWS OR FAA STATIONS AND ARE NOT UNDER
   NWS QUALITY CONTROL.

LAZ040-048-061>063-065-066-069-221400-
SOUTHEAST LOUISIANA

CITY           SKY/WX    TMP DP  RH WIND       PRES   REMARKS
N.O. AUDUBON     N/A     85  77  77 MISG        N/A
N.O. INTL ARPT PTSUNNY   82  76  81 CALM      30.03R
N.O. LAKEFRONT MOSUNNY   82  76  81 SW3       30.03R
N.O. DOWNTOWN* FAIR      84  73  70 CALM      30.03R
SLIDELL        MOSUNNY   76  71  85 CALM      30.03R
BATON ROUGE    SUNNY     76  71  85 NE3       30.03S
BOOTHVILLE     SUNNY     82  77  84 CALM      30.04R
BELLE CHASSE   PTSUNNY   81  75  82 CALM      30.02S HAZE
BOGALUSA*      FAIR      74  69  86 CALM      30.05S
GALLIANO*      NOT AVBL
NEW ROADS*     FAIR      74  72  93 CALM      30.04R
GONZALES*      FAIR      76  74  96 CALM      30.02F
HAMMOND*       MOSUNNY   73  70  88 CALM      30.05S
HOUMA*         SUNNY     79  75  89 CALM      30.02F FOG
PORT FOURCHON* MOSUNNY   82  77  83 W5        30.04S

$$

LAZ041-044-053-054-221400-
SOUTHWEST LOUISIANA

CITY           SKY/WX    TMP DP  RH WIND       PRES   REMARKS
LAKE CHARLES   SUNNY     78  75  90 NE5       30.04R FOG
LAFAYETTE      PTSUNNY   76  73  91 NE7       30.04R
PATTERSON      CLOUDY    79  77  94 CALM      30.07R
SALT POINT       N/A     84  77  79 CALM      30.02R
NEW IBERIA     MOSUNNY   79  73  82 NE6       30.04R
CHENAULT AIRPK NOT AVBL

$$

LAZ027-028-221400-
CENTRAL LOUISIANA

CITY           SKY/WX    TMP DP  RH WIND       PRES   REMARKS
FORT POLK      SUNNY     76  70  82 CALM      30.05S
ALEXANDRIA INT SUNNY     73  71  93 CALM      30.04S
ALEXANDRIA     SUNNY     74  70  87 CALM      30.06R

$$

LAZ001-002-221400-
NORTHWEST LOUISIANA

CITY           SKY/WX    TMP DP  RH WIND       PRES   REMARKS
SHREVEPORT     MOSUNNY   74  70  87 CALM      30.08R
BARKSDALE AFB  SUNNY     71  71  97 CALM      30.08R
DTN SHREVEPORT SUNNY     73  68  84 CALM      30.08R

$$

LAZ014-016-221400-
NORTHEAST LOUISIANA

CITY           SKY/WX    TMP DP  RH WIND       PRES   REMARKS
MONROE         SUNNY     74  71  91 NE3       30.07S
TALLULAH       SUNNY     76  72  87 CALM      30.06R

$$




USA.gov is the U.S. government's official web portal to all federal, state and local government web resources and services.